OTS 2

导读

OTS 2是欧洲空间局(ESA)发射的欧洲首颗实用通信试验卫星,作为欧洲后续通信卫星系列的技术先驱,于1978年5月11日成功发射入地球同步轨道。它承载验证11/14GHz通信技术、验证卫星平台可靠性的使命,为欧洲通信卫星发展积累了关键经验,超额完成预定任务,在轨工作超六年,支撑了早期欧洲区域通信试验与技术探索,是欧洲自主通信卫星发展的重要里程碑。

Basic Information
目录编号:
10855
目录名称:
OTS 2
国际标识:
1978-044A
轨道中心:
EARTH
卫星名称:
OTS 2
卫星全名:
--
卫星状态:
在轨 (已飞行17596 天)
发射日期:
1978-05-11 UTC
国别 :
(ESA)
星等 :
--
Orbit Information
数据来源 国际轨道数据
星历时间: 2026-07-14T02:16:15+0800
12小时前
查看轨道信息
半长轴: 42484.97km
偏心率: 0.0008158
轨道倾角: 7.950°
近地点辐角 359.006°
升交点赤经 303.799°
平近点角 280.465°
近地点: 36072.173km
远地点: 36141.493km
周期: 1452.488分钟
每日圈数: 0.991402
Detailed Information
使用方式:
暂无
2D Orbit Map
3D Orbit Map
Orbit Altitude Analysis Chart
Orbit Inclination Analysis Chart
Orbit Comprehensive Analysis Chart
View Comprehensive Chart